Вернуться в каталог

COSMOS 939

АктивенВоенныеLEO
NORAD 10282·PAYLOAD·🇷🇺 Russia

Запущен Aug 24, 1977 с Plesetsk Cosmodrome

Loading…

Ближайшие Пролёты (ближайшие 24 часа)

TLE

СвежийSource: Space-Track

Эпоха: Sep 14, 2026, 06:13 UTC

1 10282U 77079A   26257.25907100 -.00000012  00000-0  26620-4 0  9993
2 10282  74.0284  13.8402 0019874 319.3279  60.2353 12.54294054219109

Отслеживайте COSMOS 939 в реальном времени с AllMySat

Download on the App Store